Zurück zum Katalog

STARLINK-5037

AktivKommunikationVLEO
NORAD 53896·PAYLOAD·🇺🇸 United States

Gestartet Sep 24, 2022 von Cape Canaveral Space Force Station

Loading…

Nächste Überflüge (nächste 24 Stunden)

TLE

AktuellSource: CelesTrak SupGP

Epoche: Sep 15, 2026, 02:58 UTC

1 53896C 22119L   26258.12409722 -.00010045  00000+0 -28742-3 0  2581
2 53896  53.1604 189.2284 0001263  86.3455  64.8937 15.35400893    15

Verfolge STARLINK-5037 in Echtzeit mit AllMySat

Download on the App Store